User: anonymous   Login
Location: Eastchurch
(51.4000°N, 0.8667°E)
Time: 13:44:57
(UTC+00:00)
Language:

ISS - Orbit

View from above orbital plane
View from above orbital plane
View from above satellite
View from above satellite

Ground track
Ground track

The orbit is defined by the following mean orbital elements,

1 25544U          26071.86901802 +.00000000 +00000-0 +21655-3 0 00005
2 25544  51.6324  56.6367 0007924 186.1410 173.9482 15.48614629    09
Epoch (UTC): 12 March 2026 20:51:23
Eccentricity: 0.0007924
inclination: 51.6324°
perigee height: 415 km
apogee height: 426 km
right ascension of ascending node: 56.6367°
argument of perigee: 186.1410°
revolutions per day: 15.48614629
mean anomaly at epoch: 173.9482°

The dashed part of the orbit path shows where the satellite is in the earth's shadow,  

DLR